Flag for U.S.A. Weather past 2 weeks in Flint, Michigan, U.S.A.

Now
43 °F

Clear.


Feels Like: 43 °F
Forecast: 43 / 68 °F
Wind: No wind

Location: Bishop International Airport

Current Time: Sep 19, 2014 at 2:37:17 AM

Latest Report: Sep 19, 2014 at 1:53 AM


Visibility: 9 mi

Pressure: 30.27 "Hg

Humidity: 89%

Dew point: 40 °F

Location of FlintLocation

Historic Weather in Flint — Graph

°F

Flint temperature yesterday

Maximum temperature yesterday: 62 °F (at 11:53 AM)
Minimum temperature yesterday: 45 °F (at 5:53 AM)
Average temperature yesterday: 54 °F

Past Weeks' High & Low Weather Summary

 TemperatureHumidityPressure
High93 °F (Sep 5, 3:53 PM)93% (Sep 13, 9:53 PM)30.36 "Hg (Sep 13, 9:53 PM)
Low40 °F (Sep 17, 6:53 AM)35% (Sep 8, 3:53 PM)29.53 "Hg (Sep 10, 7:53 PM)
Average62 °F73%30.09 "Hg
* Reported Sep 4 12:53 AM — Sep 19 12:53 AM, Flint, Weather by CustomWeather, © 2014

Note: Actual official high and low records may vary slightly from our data, if they occured in-between our weather recording intervals... More about our weather records

Advertising

Flint weather history for previous 24 hours

 ConditionsComfort  
Time TempWeatherWind HumidityBarometerVisibility
12:53 AM
Sep 19
46 °FClear.5 mph83%30.25 "Hg10 mi
11:53 PM
Sep 18
46 °FClear.6 mph83%30.25 "Hg10 mi
10:53 PM49 °FClear.9 mph80%30.24 "Hg10 mi
9:53 PM52 °FClear.10 mph77%30.22 "Hg10 mi
8:53 PM53 °FClear.7 mph77%30.20 "Hg10 mi
7:53 PM55 °FPassing clouds.7 mph72%30.18 "Hg10 mi
6:53 PM59 °FPartly sunny.8 mph67%30.18 "Hg10 mi
5:53 PM60 °FMostly cloudy.7 mph69%30.18 "Hg10 mi
4:53 PM60 °FCloudy.9 mph69%30.18 "Hg10 mi
3:53 PM61 °FPartly sunny.10 mph70%30.18 "Hg10 mi
2:53 PM61 °FMostly cloudy.13 mph70%30.18 "Hg10 mi
1:53 PM61 °FMostly cloudy.No wind70%30.19 "Hg10 mi
12:53 PM62 °FOvercast.5 mph67%30.18 "Hg10 mi
11:53 AM62 °FPartly sunny.5 mph70%30.17 "Hg10 mi
10:53 AM60 °FMostly cloudy.6 mph72%30.16 "Hg10 mi
9:53 AM57 °FPartly sunny.5 mph81%30.15 "Hg10 mi
8:53 AM54 °FPassing clouds.No wind83%30.14 "Hg7 mi
7:53 AM47 °FFog.No wind86%30.13 "Hg6 mi
6:53 AM45 °FClear.No wind90%30.12 "Hg9 mi
5:53 AM45 °FFog.No wind93%30.09 "Hg3 mi
4:53 AM50 °FPassing clouds.No wind83%30.08 "Hg10 mi
3:53 AM50 °FClear.No wind80%30.05 "Hg10 mi
2:53 AM49 °FClear.5 mph86%30.05 "Hg9 mi
Weather by CustomWeather, © 2014

See weather overviewHow to use our weather pages